Weather in Kamianka

Ukraine / Zhytomyr Region     50°31′19″N   27°18′06″E
temp.,
°C
wind,
m/s
gust,
m/s
humid.,
%
clouds,
%
prec.,
mm/h
press.,
hPa
HPBL,
m
28 january, thu
thu2823:00−3nw4896100 0.0 1008384
02:00−3nw5895100 0.1 1006500
05:00−2nw5994100 0.1 1006641
08:00−3nw5994100 0.2 1006496
11:00−2nw699299 0.1 1006567
14:00−2nw61092100 0.2 1005639
17:00−3nw6992100 0.1 1004611
20:00−3nw5792100 0.1 1003583
29 january, fri
fri2923:00−5wnw489093 0.1 1002361
02:00−7wsw369375 0.1 1000127
05:00−4wsw51195100 0.1 998447
08:00−2w61296100 1.1 997713
11:00−2w6108597 0.3 997950
14:00−3w7128573 0.3 997943
17:00−3w71287100 0.1 998896
20:00−5w6129198 0.1 999443
30 january, sat
sat3023:00−7wsw349273 0.0 99964
02:00−7ssw369286 0.0 99994
05:00−5sse3595100 0.2 997164
08:00−3se5896100 3.0 994428
11:000ssw26100100 1.4 993355
14:00+1sw510100100 1.9 992418
17:000w4794100 0.0 991347
20:00−1nnw3398100 3.2 990124
31 january, sun
sun3123:00−3nnw71295100 1.7 992651
02:00−5nw71492100 2.2 996684
05:00−5wnw8139296 0.1 999672
08:00−8wnw6129498 0.2 1003395
11:00−7w6119295 0.0 1006386
14:00−6w599279 0.0 1007352
17:00−8wsw349365 0.0 100862
20:00−8sw128982 0.0 100821
1 february, mon
mon123:00−9sse338636 0.0 100833
02:00−9ese458856 0.0 100793
05:00−7ese51086100 0.0 1004246
08:00−6e61295100 0.6 1002522
11:00−4e81495100 2.3 999621
14:00−3e61096100 5.6 996644
17:00−3nne3697100 1.9 995297
20:00−4nw4796100 2.6 997278